Tracking 18980 objects as of 18-Feb-2018
HD Live streaming from Space Station
objects crossing your sky now

FENGYUN 1C DEB

Track FENGYUN 1C DEB now!
10-day predictions


NORAD ID: 30016
Int'l Code: 1999-025MR
Perigee: 698.5 km
Apogee: 818.8 km
Inclination: 99.0 °
Period: 99.9 minutes
Semi major axis: 7129 km
RCS: 0.017 m2 (small)
Launch date: May 10, 1999
Source: People's Republic of China (PRC)
Launch site: Taiyaun Space Center, China (TSC)

Note: This is SATELLITE DEBRIS
aabbcc
Your satellite tracking list
Your tracking list is empty




NASA's NSSDC Master Catalog

Two Line Element Set (TLE):
1 30016U 99025MR  18048.35376542  .00000578  00000-0  18345-3 0  9995
2 30016  98.9510 226.1789 0084344 344.8661 131.9713 14.42113003581002
Source of the keplerian elements: AFSPC